Terminal Aerodrome Forecast
Issued by NWS Quad Cities IA IL

Home | Current Version | Previous Version | Text Only | Print | Product List | Glossary On
Versions: 1 2 3 4 5 6 7 8 9 10 11 12 13 14 15 16 17 18 19 20 21 22 23 24 25 26 27
000
FTUS43 KDVN 260200 AAA
TAFDBQ
TAF AMD
KDBQ 260224Z 2602/2624 14005KT P6SM OVC018
      TEMPO 2603/2607 SCT020
     FM260700 14005KT P6SM SCT020
     FM260900 15006KT 4SM BR SCT050
     FM261500 01005KT P6SM SCT050=

USA.gov is the U.S. government's official web portal to all federal, state and local government web resources and services.